Wind_Speed
17 17 17 18 18 18 17 16 15 15 15 15 14 14 14 14 14 14 14 14 13 13 13 13 12 13 14 14 14 14 14 14 14 14 14 14 15 15 15 16 16 17 18 18 18 19 19 19 19
18 18 18 18 19 18 17 17 17 17 17 16 16 15 14 14 14 14 14 14 14 14 13 13 13 14 14 14 14 14 14 14 14 14 14 14 15 15 16 17 18 19 19 20 20 20 20 21 21
18 18 19 19 18 17 17 18 18 19 19 18 17 17 15 15 16 15 15 14 14 14 14 15 14 15 14 14 14 14 14 14 14 14 14 14 14 15 16 17 18 19 20 21 21 21 21 22 22
18 19 20 20 19 18 18 19 19 20 20 19 19 18 17 17 16 16 16 15 15 15 15 15 15 15 14 14 14 14 14 14 14 14 14 15 15 16 17 18 19 19 20 20 21 21 22 22 23
19 20 20 20 20 19 19 20 20 20 20 20 19 18 18 17 17 17 17 17 16 16 15 15 15 15 15 15 15 15 15 15 15 15 16 16 17 18 18 19 19 20 20 21 21 22 22 23 24
19 20 21 20 19 19 20 20 21 21 20 20 19 19 18 18 19 18 18 18 18 17 16 16 16 16 16 16 16 16 16 16 17 17 17 18 18 18 18 19 19 20 21 22 22 22 22 23 24
18 20 20 20 20 20 20 21 21 21 21 20 20 19 18 19 20 19 19 20 19 18 18 17 17 17 17 17 17 16 16 16 17 17 17 17 18 19 19 20 19 20 21 21 22 22 22 23 23
20 20 20 20 20 20 21 21 22 22 21 21 21 20 19 20 20 20 19 19 19 19 19 19 18 18 18 18 18 17 17 18 18 18 18 18 19 19 20 20 20 20 21 21 22 22 23 23 24
20 21 20 20 19 19 20 21 21 21 21 21 21 21 20 21 21 21 20 20 20 20 20 20 19 19 19 19 19 19 19 19 19 19 19 19 19 20 20 21 21 21 22 22 22 22 23 23 23
20 20 19 20 20 19 20 21 21 22 21 21 21 21 21 21 21 22 22 21 21 21 21 21 20 20 20 20 19 20 20 20 21 21 21 21 21 21 21 22 22 22 22 23 23 23 23 22 22
19 20 19 20 20 19 19 20 21 21 21 21 21 22 22 22 22 22 23 23 22 22 21 21 21 21 21 21 21 21 21 21 22 22 23 23 22 22 22 23 22 23 23 23 23 23 23 23 22
19 20 20 20 21 21 21 21 21 21 21 22 22 22 23 23 22 22 23 23 23 23 22 23 23 23 22 23 22 22 23 23 23 23 23 23 23 23 23 23 23 24 24 23 23 23 23 23 23
20 19 20 21 21 21 22 22 22 21 22 23 23 24 23 23 23 22 22 23 24 24 24 24 25 24 24 24 24 24 24 23 22 23 23 23 23 23 23 23 24 24 24 24 24 23 23 23 23
20 20 21 22 22 22 22 22 22 22 23 24 25 24 24 24 24 24 23 23 25 25 26 26 26 25 25 25 24 24 24 24 23 23 23 23 23 23 23 24 24 23 23 23 23 23 23 23 24
21 21 21 22 22 23 23 22 23 22 23 24 24 25 25 25 25 25 25 24 25 26 26 26 26 25 25 25 24 24 24 24 24 25 24 24 24 24 24 24 23 23 23 23 23 23 24 24 24
22 22 22 22 23 23 24 22 22 22 23 23 23 24 25 26 26 26 26 26 26 26 26 26 25 25 25 25 25 25 25 25 25 25 25 25 25 25 24 24 24 24 24 23 23 23 23 24 24
23 23 23 23 23 23 23 22 22 22 23 23 24 24 25 26 26 27 27 27 26 25 25 25 25 25 25 25 25 26 26 25 26 26 26 26 25 25 25 24 24 24 24 24 24 24 23 24 24
22 23 22 22 22 22 22 22 22 22 23 23 24 24 25 25 26 26 27 26 26 25 25 25 26 26 26 26 27 27 26 26 26 27 27 27 26 26 26 25 25 25 25 25 25 25 25 25 25
23 23 22 21 22 22 22 22 23 22 23 24 24 25 25 25 26 26 26 26 26 26 26 26 27 27 27 27 27 27 27 28 28 27 27 27 27 26 25 26 26 26 26 25 25 26 27 27 27
22 22 22 22 22 22 22 22 22 23 23 24 24 25 26 26 26 26 26 27 26 26 27 28 28 28 28 28 27 27 27 27 27 27 27 27 26 26 26 26 26 26 26 27 27 27 28 28 29
22 22 22 22 22 23 23 21 21 21 23 23 24 25 25 26 26 26 27 27 28 28 28 29 29 29 29 29 29 28 27 27 27 27 27 27 27 26 26 26 26 27 27 27 28 29 29 30 30
23 23 23 22 22 22 23 22 20 20 22 23 23 24 24 25 26 26 27 28 28 29 29 29 29 29 29 29 29 28 28 27 27 26 27 26 26 27 27 27 27 27 28 29 29 29 30 31 32
23 23 23 23 22 22 22 23 20 20 21 22 23 23 23 24 24 25 26 27 27 27 28 28 28 28 28 29 29 28 27 27 27 26 26 27 27 27 28 27 28 28 28 29 29 30 31 32 33
23 24 24 24 24 23 22 24 23 21 21 22 22 23 23 24 24 24 25 26 26 26 27 26 26 27 27 27 27 27 28 27 27 26 26 27 27 27 28 29 29 30 30 31 31 32 33 33 34
23 24 25 25 25 25 23 24 25 24 23 23 23 23 24 24 24 25 25 25 26 26 26 26 26 26 26 26 27 27 27 28 27 27 27 27 27 28 29 30 31 32 32 33 33 33 34 35 36
24 25 26 27 27 26 25 25 24 24 24 24 23 23 24 24 25 25 25 25 25 25 25 25 25 25 25 25 26 27 27 27 27 27 27 28 28 29 30 31 32 33 34 34 34 34 35 36 36
26 25 26 27 28 28 27 26 25 25 25 25 24 24 24 24 25 25 25 25 24 24 24 24 24 24 25 26 26 26 27 27 27 28 28 29 29 29 30 32 32 33 34 34 35 35 35 36 37
26 26 26 27 29 30 29 27 27 25 26 25 25 24 24 24 24 24 25 25 24 24 24 24 25 25 26 26 26 27 27 28 28 28 28 29 29 30 31 32 33 34 35 35 36 36 36 36 36
26 27 28 29 30 31 31 29 27 26 27 27 26 25 25 24 25 25 25 24 24 24 24 24 25 25 27 27 28 28 28 28 28 28 28 29 30 31 31 33 33 34 35 36 36 37 37 37 38
28 28 28 29 29 31 32 31 29 28 28 28 27 27 26 26 26 26 26 25 25 25 25 25 26 26 27 28 28 28 29 28 28 29 29 29 30 31 32 33 34 34 35 36 37 37 38 39 39
Wind_Direction
237 239 237 239 240 241 243 244 247 247 245 247 252 256 257 259 263 266 267 269 270 271 272 272 276 277 277 276 272 270 269 267 268 269 268 270 270 270 270 272 275 277 279 279 279 278 277 278 278
239 240 240 242 242 243 244 246 246 246 246 248 252 253 255 258 263 266 267 267 269 271 275 275 275 279 280 278 273 269 268 268 268 269 270 271 272 272 272 275 277 277 280 281 280 279 277 276 278
239 240 241 242 242 246 247 247 248 248 248 248 249 251 254 259 262 265 267 267 269 270 272 273 275 277 279 277 273 270 267 266 266 269 272 272 273 275 276 278 279 280 280 281 279 277 277 277 279
240 240 241 242 243 246 248 247 247 248 248 249 249 253 256 259 262 265 266 268 272 271 272 273 274 274 276 275 272 270 268 267 266 270 272 272 274 277 279 282 282 282 281 279 279 278 278 279 280
240 239 241 243 244 247 251 250 247 250 250 251 251 254 256 258 261 264 266 267 271 272 272 273 273 273 273 273 271 270 270 269 266 269 273 273 274 278 280 282 282 282 281 281 280 279 280 279 281
240 241 243 244 247 249 252 251 250 251 251 252 252 254 256 258 260 262 264 267 270 271 271 271 271 273 273 272 269 268 268 270 269 272 275 278 279 280 280 283 284 283 282 282 281 281 282 282 282
242 243 244 245 247 248 251 252 251 251 251 253 255 255 257 257 260 262 264 266 268 268 268 268 271 274 275 275 271 268 268 271 272 276 277 280 281 281 282 283 284 285 284 283 283 282 282 282 283
245 246 247 248 248 248 250 252 251 251 253 255 256 256 257 259 261 263 264 264 264 266 268 268 271 274 274 274 272 270 270 271 273 276 277 280 283 283 283 283 284 285 286 284 283 283 282 282 283
248 249 250 251 251 249 249 250 251 252 254 256 255 256 258 258 259 260 261 262 263 265 267 268 270 273 274 273 271 270 271 273 275 277 278 281 283 284 283 283 284 286 286 286 285 284 283 282 282
250 251 252 252 251 250 249 250 251 253 254 255 254 255 258 258 258 259 261 262 263 265 266 267 268 270 271 272 272 272 272 273 275 276 279 280 281 283 283 283 284 286 286 286 285 285 284 283 282
253 254 252 252 253 253 251 251 252 253 254 256 257 257 259 259 261 262 260 260 261 264 265 266 268 269 270 271 270 272 274 275 276 277 279 279 279 281 282 283 283 284 285 286 285 283 282 282 280
256 254 252 252 255 256 256 255 254 254 256 258 259 259 259 259 262 263 262 262 261 262 263 264 267 268 268 269 270 272 274 276 277 278 278 278 279 279 280 281 282 284 285 284 284 284 282 281 280
256 255 255 255 257 258 257 256 256 257 258 258 259 259 260 259 261 262 263 263 261 260 261 263 266 267 267 267 269 271 274 275 276 277 278 280 281 280 279 280 282 284 284 283 283 283 282 281 282
259 259 258 257 257 257 257 257 257 259 260 259 258 259 260 262 264 264 264 264 262 262 262 262 263 265 265 267 269 270 272 274 275 276 278 279 280 281 281 281 283 284 285 284 283 283 283 281 281
259 262 261 260 258 258 259 257 259 259 260 261 260 259 260 263 264 265 265 265 264 264 263 262 263 264 265 266 269 270 271 272 274 276 277 278 279 280 280 281 282 283 285 284 283 283 283 281 281
261 262 263 262 260 259 258 258 258 258 258 259 260 261 261 262 263 265 265 266 266 266 265 263 262 263 264 266 268 269 270 271 273 274 275 277 278 279 279 280 282 283 283 282 281 281 283 283 282
262 262 263 263 260 259 259 259 258 259 259 260 261 264 264 264 264 264 265 265 267 267 266 264 264 264 265 267 268 271 271 270 271 271 273 276 277 278 278 280 281 283 283 282 281 281 285 285 284
262 262 263 264 262 261 261 260 260 262 262 263 264 265 266 266 266 265 264 265 266 266 264 264 264 264 264 266 267 269 269 269 270 272 273 273 275 278 279 280 281 283 284 284 282 281 281 283 285
261 260 263 266 263 260 259 260 260 261 263 265 264 265 266 266 265 265 265 264 264 263 263 264 264 265 264 266 267 268 268 269 271 272 272 272 272 276 278 280 280 282 283 283 282 281 280 281 283
259 260 263 266 266 260 257 258 260 263 265 266 266 267 268 267 266 267 266 265 264 262 263 265 266 265 264 264 265 267 268 268 270 271 270 270 271 273 276 278 279 282 283 284 283 282 281 282 283
259 261 264 268 267 264 260 256 259 264 267 267 267 268 269 267 267 268 267 266 266 266 266 267 267 266 264 263 265 266 267 268 268 269 270 270 271 271 273 276 278 280 282 283 283 283 283 283 283
259 260 263 266 267 264 263 260 257 264 267 269 270 270 270 270 269 268 268 268 267 267 267 268 269 267 264 263 263 265 267 268 267 268 270 271 271 272 273 276 278 280 281 282 283 284 284 283 283
258 258 260 263 266 264 263 264 260 264 269 271 272 272 272 272 272 271 269 268 268 268 269 269 268 267 265 263 263 265 265 266 266 267 269 270 271 273 274 275 278 280 282 283 284 284 285 284 284
258 258 259 260 262 263 264 266 266 269 272 272 272 272 273 272 273 274 274 270 268 270 271 269 269 268 267 265 264 264 264 265 266 269 270 271 272 274 275 275 277 280 281 283 285 285 286 285 285
256 258 259 259 260 264 265 267 270 272 273 275 274 273 273 274 273 275 276 272 270 271 272 271 270 268 267 265 265 264 265 267 267 269 270 271 273 275 276 277 279 281 283 285 287 286 286 286 284
257 259 261 263 263 264 266 269 272 273 274 276 276 276 274 275 276 276 275 275 271 270 270 270 269 266 265 266 266 265 267 269 268 270 272 273 276 278 279 281 283 284 284 285 286 286 286 286 285
257 259 262 264 265 265 266 269 271 274 276 276 275 275 275 275 277 277 278 276 272 269 270 270 269 268 267 267 266 266 267 270 272 275 275 275 277 280 281 282 283 285 286 288 288 288 287 286 286
260 260 262 264 267 267 268 270 272 274 276 275 274 273 274 276 277 278 278 277 273 270 269 269 271 271 268 266 265 266 268 270 272 277 277 277 278 279 281 282 284 286 286 287 289 290 288 287 288
260 260 263 265 266 268 270 271 273 275 276 277 275 274 275 275 275 276 276 275 272 269 269 269 268 270 270 268 268 267 268 271 274 276 277 278 279 280 282 283 284 286 287 288 290 291 289 288 288
261 263 264 265 266 268 270 272 273 275 276 277 275 274 274 273 273 273 272 272 271 270 271 271 268 269 270 270 269 267 268 272 276 277 279 280 280 281 282 283 285 287 288 289 290 290 290 289 288
Height
5797 5799 5801 5802 5804 5805 5806 5808 5809 5810 5811 5812 5813 5814 5815 5816 5817 5820 5818 5817 5817 5817 5817 5817 5817 5817 5816 5815 5814 5814 5814 5815 5815 5816 5816 5817 5817 5818 5819 5819 5820 5820 5820 5820 5819 5819 5819 5819 5819
5794 5796 5798 5799 5800 5802 5804 5806 5807 5808 5809 5810 5811 5811 5812 5813 5813 5814 5814 5814 5814 5815 5815 5814 5814 5814 5813 5812 5811 5811 5811 5811 5812 5813 5813 5814 5814 5815 5815 5816 5816 5816 5816 5816 5816 5815 5815 5815 5815
5791 5793 5795 5796 5797 5799 5802 5803 5804 5804 5806 5807 5807 5808 5809 5810 5810 5811 5811 5811 5811 5812 5811 5811 5811 5811 5810 5809 5808 5808 5808 5809 5809 5810 5810 5811 5811 5812 5812 5812 5812 5812 5812 5812 5811 5811 5811 5811 5811
5789 5790 5792 5794 5795 5797 5798 5799 5800 5801 5803 5804 5804 5805 5806 5807 5808 5808 5808 5808 5808 5809 5809 5809 5808 5808 5807 5806 5806 5805 5805 5806 5806 5807 5808 5808 5808 5808 5809 5808 5808 5808 5808 5808 5807 5807 5807 5807 5806
5785 5787 5789 5790 5792 5793 5794 5795 5796 5798 5799 5800 5801 5802 5803 5804 5804 5804 5805 5805 5805 5805 5806 5805 5805 5805 5804 5803 5803 5803 5803 5803 5803 5804 5804 5805 5805 5805 5805 5805 5805 5804 5804 5803 5803 5803 5802 5802 5802
5783 5784 5786 5787 5789 5790 5791 5791 5793 5794 5795 5796 5797 5799 5800 5801 5801 5801 5801 5802 5802 5802 5802 5802 5802 5802 5801 5801 5800 5800 5800 5800 5800 5801 5801 5801 5801 5801 5801 5801 5800 5800 5799 5799 5799 5798 5798 5797 5797
5780 5780 5781 5783 5785 5786 5787 5788 5789 5790 5791 5793 5794 5795 5796 5797 5797 5797 5798 5798 5798 5799 5799 5799 5798 5798 5798 5797 5797 5797 5797 5797 5797 5797 5797 5797 5797 5797 5797 5796 5796 5795 5795 5794 5794 5793 5793 5793 5792
5775 5777 5777 5779 5781 5783 5784 5784 5785 5786 5788 5789 5790 5791 5792 5793 5793 5793 5793 5794 5794 5795 5795 5795 5795 5794 5794 5794 5794 5793 5793 5793 5793 5793 5793 5793 5792 5792 5792 5792 5791 5791 5790 5789 5789 5788 5788 5787 5787
5771 5774 5774 5775 5777 5778 5779 5780 5781 5782 5783 5784 5785 5787 5788 5788 5788 5789 5789 5790 5790 5790 5791 5791 5791 5791 5790 5790 5790 5790 5789 5789 5789 5789 5789 5788 5788 5788 5787 5787 5786 5786 5785 5784 5783 5783 5782 5782 5781
5768 5769 5771 5772 5773 5774 5775 5776 5777 5778 5779 5780 5781 5782 5782 5783 5784 5784 5784 5785 5785 5786 5786 5786 5786 5786 5786 5786 5786 5785 5785 5785 5785 5784 5784 5784 5783 5783 5783 5782 5781 5781 5780 5779 5778 5778 5777 5776 5776
5764 5765 5766 5767 5768 5769 5770 5772 5772 5773 5775 5776 5777 5777 5777 5778 5779 5779 5779 5780 5780 5781 5781 5782 5781 5781 5782 5782 5782 5781 5781 5780 5780 5779 5779 5779 5778 5778 5777 5776 5776 5775 5774 5773 5773 5772 5771 5771 5771
5760 5761 5762 5763 5764 5765 5766 5767 5768 5769 5771 5771 5772 5772 5773 5773 5774 5774 5774 5775 5775 5775 5776 5776 5776 5776 5776 5776 5776 5776 5776 5775 5775 5774 5774 5773 5773 5772 5772 5771 5770 5769 5768 5767 5766 5766 5766 5765 5765
5756 5757 5757 5758 5759 5760 5761 5762 5763 5765 5766 5766 5766 5767 5768 5768 5768 5768 5769 5769 5769 5770 5770 5770 5770 5771 5771 5771 5771 5771 5770 5770 5769 5769 5768 5768 5767 5767 5766 5765 5764 5763 5761 5760 5760 5760 5759 5759 5759
5751 5752 5753 5753 5754 5755 5756 5757 5758 5760 5760 5760 5761 5762 5762 5762 5762 5763 5763 5763 5763 5763 5764 5764 5765 5765 5765 5765 5765 5765 5765 5764 5764 5763 5763 5762 5761 5761 5760 5759 5758 5756 5755 5754 5754 5754 5754 5754 5753
5746 5747 5748 5749 5749 5750 5751 5753 5754 5754 5754 5755 5755 5756 5756 5757 5757 5756 5756 5757 5757 5757 5758 5758 5758 5759 5759 5759 5759 5759 5758 5758 5758 5757 5757 5756 5755 5755 5754 5753 5752 5750 5749 5748 5748 5748 5748 5748 5748
5741 5742 5743 5744 5744 5744 5747 5748 5749 5748 5748 5749 5749 5750 5750 5751 5751 5751 5750 5750 5750 5750 5750 5751 5751 5752 5753 5753 5753 5753 5752 5752 5752 5751 5750 5750 5749 5748 5748 5747 5745 5744 5743 5743 5743 5742 5742 5742 5741
5736 5737 5737 5738 5738 5738 5740 5742 5743 5743 5743 5744 5744 5744 5745 5745 5745 5745 5744 5744 5744 5743 5743 5744 5745 5746 5746 5747 5747 5746 5746 5746 5745 5745 5744 5743 5743 5742 5741 5740 5740 5739 5738 5737 5737 5736 5736 5736 5735
5731 5731 5732 5732 5732 5733 5734 5736 5737 5737 5737 5738 5738 5738 5738 5739 5739 5738 5738 5738 5737 5737 5737 5738 5739 5739 5740 5740 5740 5740 5739 5739 5739 5738 5738 5737 5736 5736 5735 5734 5734 5733 5732 5732 5731 5731 5730 5729 5729
5725 5726 5727 5727 5727 5727 5728 5730 5731 5731 5732 5732 5732 5732 5732 5732 5732 5731 5731 5731 5731 5731 5732 5732 5733 5733 5733 5733 5733 5733 5733 5733 5732 5732 5731 5730 5730 5729 5729 5728 5728 5727 5726 5726 5725 5724 5723 5723 5722
5720 5721 5722 5722 5721 5721 5723 5724 5725 5725 5726 5726 5726 5726 5726 5726 5726 5726 5725 5725 5725 5725 5726 5726 5726 5726 5727 5727 5727 5727 5727 5726 5726 5725 5724 5723 5723 5723 5722 5722 5722 5721 5720 5719 5718 5718 5717 5716 5715
5715 5716 5717 5717 5716 5716 5717 5719 5720 5720 5720 5720 5720 5720 5719 5719 5719 5719 5719 5719 5719 5719 5719 5719 5719 5719 5720 5720 5720 5720 5719 5719 5719 5718 5718 5717 5717 5716 5716 5716 5715 5714 5714 5713 5712 5711 5710 5709 5708
5710 5711 5711 5711 5711 5711 5712 5713 5716 5715 5715 5714 5714 5714 5713 5713 5713 5713 5712 5712 5712 5712 5712 5712 5711 5711 5712 5712 5712 5713 5713 5713 5713 5712 5712 5711 5710 5710 5710 5709 5708 5708 5707 5706 5705 5704 5703 5702 5701
5705 5706 5706 5706 5706 5706 5707 5708 5711 5711 5710 5710 5709 5708 5707 5707 5706 5706 5705 5705 5705 5705 5705 5704 5704 5704 5704 5705 5705 5706 5706 5706 5706 5706 5705 5704 5704 5704 5703 5703 5702 5701 5700 5699 5698 5697 5696 5694 5693
5700 5701 5701 5700 5700 5702 5704 5703 5705 5705 5706 5705 5704 5703 5701 5701 5700 5700 5699 5699 5699 5699 5698 5697 5697 5697 5697 5698 5698 5699 5700 5700 5700 5700 5699 5698 5698 5697 5697 5696 5695 5694 5693 5692 5691 5689 5688 5686 5685
5695 5695 5695 5695 5695 5697 5698 5697 5699 5700 5700 5699 5698 5697 5696 5695 5694 5694 5693 5692 5692 5692 5691 5691 5691 5691 5691 5691 5692 5693 5694 5694 5694 5694 5693 5693 5692 5691 5691 5690 5689 5688 5686 5685 5683 5681 5679 5677 5676
5689 5690 5691 5690 5690 5691 5692 5692 5695 5694 5693 5692 5692 5691 5690 5689 5688 5687 5686 5685 5685 5684 5684 5684 5684 5684 5685 5685 5686 5687 5687 5687 5688 5688 5687 5687 5686 5685 5684 5683 5682 5680 5679 5677 5675 5673 5670 5668 5666
5683 5683 5685 5684 5683 5684 5685 5686 5688 5687 5687 5686 5686 5685 5685 5683 5682 5681 5680 5679 5678 5678 5678 5678 5678 5678 5679 5679 5680 5681 5681 5681 5681 5681 5680 5680 5679 5678 5677 5676 5675 5673 5671 5669 5666 5664 5661 5659 5656
5677 5678 5678 5677 5676 5677 5678 5680 5681 5681 5680 5680 5680 5679 5679 5677 5676 5675 5674 5673 5672 5672 5673 5673 5673 5673 5673 5674 5674 5674 5675 5675 5675 5674 5673 5672 5672 5670 5669 5668 5667 5665 5663 5660 5658 5655 5652 5649 5647
5671 5672 5671 5671 5671 5671 5671 5675 5675 5675 5674 5673 5673 5673 5672 5672 5671 5670 5668 5668 5667 5667 5667 5667 5667 5667 5667 5667 5667 5667 5667 5668 5667 5667 5666 5665 5664 5663 5661 5660 5658 5656 5654 5652 5649 5646 5643 5640 5638
5664 5664 5664 5665 5664 5664 5664 5669 5668 5668 5667 5666 5666 5666 5665 5665 5665 5664 5663 5662 5662 5662 5662 5661 5661 5661 5661 5661 5661 5660 5660 5660 5660 5659 5658 5657 5656 5654 5653 5651 5650 5648 5645 5643 5640 5637 5634 5631 5628